Weather History for Wink, TX

Change the Weather History Date:

Thursday, October 20, 2011

  Actual Average Record
Temperature  
Mean Temperature 68 °F -  
Max Temperature 91 °F 77 °F 100 °F (2007)
Min Temperature 44 °F 47 °F 27 °F (1976)
Cooling Degree Days 2    
Growing Degree Days 18 (Base 50)    
Moisture  
Dew Point 25 °F    
Average Humidity 23    
Maximum Humidity 46    
Minimum Humidity 9    
Precipitation  
Precipitation 0.00 in - - ()
Sea Level Pressure  
Sea Level Pressure 29.91 in    
Wind  
Wind Speed 10 mph (WSW)    
Max Wind Speed 14 mph    
Max Gust Speed 22 mph    
Visibility 10 miles    
Events      
Averages and records for this station are not official NWS values.
T = Trace of Precipitation, MM = Missing Value Source: NWS Daily Summary

Daily Weather History Graph

Daily Weather History Graph

Search for Another Location

Airport:

Trip Planner

Search our weather history database for the weather conditions in past years. The results will help you decide how hot, cold, wet, or windy it might be!

Date:

Astronomy

Oct. 20, 2011 Rise Set
Actual Time 7:59 AM CDT 7:15 PM CDT
Civil Twilight 7:34 AM CDT 7:39 PM CDT
Nautical Twilight 7:06 AM CDT 8:08 PM CDT
Astronomical Twilight 6:38 AM CDT 8:36 PM CDT
Moon 1:12 AM CDT (10/20) 3:02 PM CDT (10/20)
Length of Visible Light 12h 05m
Length of Day
11h 15m
Last Quarter, 44% of the Moon is Illuminated
Oct 20
Last Quarter
Oct 26
New
Nov 2
First Quarter
Nov 10
Full
Nov 18
Last Quarter

Hourly Weather History & Observations

Time (CDT) Temp. Windchill Dew Point Humidity Pressure Visibility Wind Dir Wind Speed Gust Speed Precip Events Conditions
12:53 AM 57.9 °F - 25.0 °F 28% 29.94 in 10.0 mi SE 13.8 mph - N/A   Clear
1:53 AM 55.0 °F - 25.0 °F 31% 29.94 in 10.0 mi SE 11.5 mph - N/A   Clear
2:53 AM 53.6 °F - 24.8 °F 33% 30.01 in 10.0 mi SE 10.4 mph - N/A   Clear
3:53 AM 52.0 °F - 25.0 °F 35% 29.91 in 10.0 mi SE 9.2 mph - N/A   Clear
4:53 AM 51.1 °F - 25.0 °F 36% 29.91 in 10.0 mi SE 9.2 mph - N/A   Clear
5:53 AM 51.8 °F - 24.8 °F 35% 29.99 in 10.0 mi SE 8.1 mph - N/A   Clear
6:53 AM 48.0 °F - 25.0 °F 41% 29.92 in 10.0 mi East 4.6 mph - N/A   Clear
7:53 AM 44.6 °F 42.2 °F 24.8 °F 46% 30.01 in 10.0 mi NNE 4.6 mph - N/A   Clear
8:53 AM 50.0 °F - 25.0 °F 38% 29.96 in 10.0 mi Calm Calm - N/A   Clear
9:53 AM 57.2 °F - 26.6 °F 31% 30.04 in 10.0 mi SE 4.6 mph - N/A   Clear
10:53 AM 64.9 °F - 26.1 °F 23% 29.96 in 10.0 mi SSE 3.5 mph - N/A   Clear
11:53 AM 73.0 °F - 26.1 °F 17% 29.93 in 10.0 mi WSW 9.2 mph - N/A   Clear
12:53 PM 81.0 °F - 28.0 °F 14% 29.89 in 10.0 mi West 10.4 mph - N/A   Clear
1:53 PM 86.0 °F - 28.0 °F 12% 29.86 in 10.0 mi West 12.7 mph 18.4 mph N/A   Clear
2:53 PM 90.0 °F - 25.0 °F 10% 29.83 in 10.0 mi NW 13.8 mph 21.9 mph N/A   Clear
3:53 PM 90.0 °F - 25.0 °F 10% 29.81 in 10.0 mi NW 8.1 mph 17.3 mph N/A   Clear
4:53 PM 91.9 °F - 24.1 °F 9% 29.80 in 10.0 mi NW 12.7 mph 19.6 mph N/A   Clear
5:53 PM 91.0 °F - 24.1 °F 9% 29.80 in 10.0 mi NNW 8.1 mph - N/A   Clear
6:53 PM 87.1 °F - 25.0 °F 10% 29.83 in 10.0 mi West 10.4 mph - N/A   Clear
7:53 PM 77.0 °F - 24.1 °F 14% 29.87 in 10.0 mi WSW 8.1 mph - N/A   Clear
8:53 PM 73.0 °F - 23.0 °F 15% 29.89 in 10.0 mi NW 8.1 mph - N/A   Clear
9:53 PM 69.1 °F - 24.1 °F 18% 29.90 in 10.0 mi West 9.2 mph - N/A   Clear
10:53 PM 66.9 °F - 24.1 °F 20% 29.90 in 10.0 mi West 10.4 mph - N/A   Clear
11:53 PM 64.9 °F - 24.1 °F 21% 29.89 in 10.0 mi North 8.1 mph - N/A   Clear